DELTA 1 DEB, 21319

Orbit data source: Space-Track

DELTA 1 DEB, 21319 is space debris in SSO originally from a launch on Thu, 12 Jun 1975 UTC launched from the Air Force Western Test Range (AFWTR). Debris objects in space refer to the collection of defunct objects orbiting the Earth. Examples of debris include non-operational satellites, rocket bodies, and fragments generated from explosions, collisions, or faulty payload assembly.

Loading next visibility...
Identifier
21319, 1975-052AM
Orbit
SSO
Country
Flag of USUS
Related business
Manufacturer
Unknown
Mission
Spacecraft
Bus & Motor
Unknown
Mass
Unknown
Launch date (UTC)
1975-06-12 (50 years ago)
Launch vehicle
Unknown
Launch site
Air Force Western Test Range (AFWTR)
Object type
Payload
Rocket body
Debris
Shape & HBR
Unknown shape, 0.1 m
Radar Cross Section
Small (<0.1 m²)

Expand to show TLE details & history
Last TLE update: 1 day ago

TLE from 1 day ago
0 DELTA 1 DEB
1 21319U 75052AM  25306.00751534  .00000742  00000-0  20546-2 0  9998
2 21319  99.6380 132.8766 0236522   3.5579 148.1691 13.06785007640530
Epoch: 2025-11-02T00:10Z
TLE epoch observation values (Epoch: 2025-11-02T00:10:49.325Z)
Latitude
26.50304°
Longitude
-86.5247°
Altitude
1,392.867 km
Speed
7.093 km/s
True Right ascension
21h 10m 50s
True Declination
26° 22' 38"
Sunlit
Object was in daylight at epoch
Visualization orbit readout
Latitude
Unknown
Longitude
Unknown
Altitude
Unknown
Speed
Unknown
Apparent Right ascension
Unknown
Apparent Declination
Unknown
Sunlit
N/A
Visualization observer readout
Local Sidereal Time
02:45:48
Azimuth
Unknown
Elevation
Unknown
Doppler factor
Unknown
Orbital elements
Apogee altitude
1,412.995 km
Perigee altitude
1,052.956 km
Semi-major axis
7,611.112 km
Eccentricity
0.02365
Inclination
99.638°
RAAN
132.8766°
Arg. of periapsis
3.5579°
True anomaly
149.56338°
Mean anomaly
148.1691°
Eccentric anomaly
148.8697°
Mean motion
3.26867 °/min
Orbital period
110.14 mins
BSTAR
0.0020546
Loading maneuver chart data...
Computing Atmospheric mass density...
Loading historical data...
Loading historical data...
Loading historical data...
Loading historical data...
Loading historical data...
Loading historical data...
Loading historical data...

Documentation

Showing up to 5 results
|